Year,Month,Day,Hour,Minute,Value (Times are PST for windspeed in km/hr)
2012,03,12,00,00,0.90
2012,03,12,00,01,0.40
2012,03,12,00,02,0.00
2012,03,12,00,03,0.00
2012,03,12,00,04,0.00
2012,03,12,00,05,0.00
2012,03,12,00,06,0.00
2012,03,12,00,07,1.00
2012,03,12,00,08,3.00
2012,03,12,00,09,1.80
2012,03,12,00,10,0.00
2012,03,12,00,11,0.00
2012,03,12,00,12,0.00
2012,03,12,00,13,0.00
2012,03,12,00,14,0.00
2012,03,12,00,15,0.50
2012,03,12,00,16,1.30
2012,03,12,00,17,0.70
2012,03,12,00,18,0.30
2012,03,12,00,19,0.00
2012,03,12,00,20,1.00
2012,03,12,00,21,1.10
2012,03,12,00,22,2.10
2012,03,12,00,23,1.10
2012,03,12,00,24,0.00
2012,03,12,00,25,1.50
2012,03,12,00,26,0.50
2012,03,12,00,27,0.00
2012,03,12,00,28,1.50
2012,03,12,00,29,3.20
2012,03,12,00,30,0.50
2012,03,12,00,31,1.20
2012,03,12,00,32,3.10
2012,03,12,00,33,0.20
2012,03,12,00,34,2.20
2012,03,12,00,35,3.10
2012,03,12,00,36,0.50
2012,03,12,00,37,0.60
2012,03,12,00,38,1.70
2012,03,12,00,39,0.00
2012,03,12,00,40,0.30
2012,03,12,00,41,5.30
2012,03,12,00,42,5.60
2012,03,12,00,43,0.50
2012,03,12,00,44,3.10
2012,03,12,00,45,6.00
2012,03,12,00,46,3.90
2012,03,12,00,47,4.70
2012,03,12,00,48,2.60
2012,03,12,00,49,3.80
2012,03,12,00,50,3.80
2012,03,12,00,51,6.10
2012,03,12,00,52,5.90
2012,03,12,00,53,1.80
2012,03,12,00,54,2.20
2012,03,12,00,55,8.90
2012,03,12,00,56,7.60
2012,03,12,00,57,8.10
2012,03,12,00,58,4.30
2012,03,12,00,59,2.50
2012,03,12,01,00,5.00
2012,03,12,01,01,2.30
2012,03,12,01,02,2.50
2012,03,12,01,03,6.40
2012,03,12,01,04,5.70
2012,03,12,01,05,8.70
2012,03,12,01,06,7.60
2012,03,12,01,07,6.50
2012,03,12,01,08,3.20
2012,03,12,01,09,4.70
2012,03,12,01,10,7.70
2012,03,12,01,11,6.00
2012,03,12,01,12,2.10
2012,03,12,01,13,6.30
2012,03,12,01,14,5.60
2012,03,12,01,15,5.70
2012,03,12,01,16,8.60
2012,03,12,01,17,8.10
2012,03,12,01,18,8.10
2012,03,12,01,19,3.80
2012,03,12,01,20,1.30
2012,03,12,01,21,5.90
2012,03,12,01,22,5.50
2012,03,12,01,23,7.10
2012,03,12,01,24,7.80
2012,03,12,01,25,7.70
2012,03,12,01,26,10.70
2012,03,12,01,27,4.00
2012,03,12,01,28,1.30
2012,03,12,01,29,2.30
2012,03,12,01,30,5.10
2012,03,12,01,31,4.50
2012,03,12,01,32,5.50
2012,03,12,01,33,4.60
2012,03,12,01,34,2.40
2012,03,12,01,35,7.50
2012,03,12,01,36,9.30
2012,03,12,01,37,7.10
2012,03,12,01,38,7.50
2012,03,12,01,39,3.90
2012,03,12,01,40,3.10
2012,03,12,01,41,4.00
2012,03,12,01,42,5.20
2012,03,12,01,43,8.00
2012,03,12,01,44,3.90
2012,03,12,01,45,3.60
2012,03,12,01,46,5.50
2012,03,12,01,47,3.10
2012,03,12,01,48,7.90
2012,03,12,01,49,9.60
2012,03,12,01,50,6.50
2012,03,12,01,51,5.50
2012,03,12,01,52,3.60
2012,03,12,01,53,3.00
2012,03,12,01,54,1.40
2012,03,12,01,55,8.40
2012,03,12,01,56,7.10
2012,03,12,01,57,7.10
2012,03,12,01,58,5.10
2012,03,12,01,59,7.40
2012,03,12,02,00,10.60
2012,03,12,02,01,12.20
2012,03,12,02,02,9.30
2012,03,12,02,03,7.30
2012,03,12,02,04,11.60
2012,03,12,02,05,5.10
2012,03,12,02,06,5.20
2012,03,12,02,07,7.10
2012,03,12,02,08,6.00
2012,03,12,02,09,4.50
2012,03,12,02,10,6.80
2012,03,12,02,11,7.00
2012,03,12,02,12,8.50
2012,03,12,02,13,7.80
2012,03,12,02,14,6.70
2012,03,12,02,15,9.70
2012,03,12,02,16,6.90
2012,03,12,02,17,9.40
2012,03,12,02,18,8.30
2012,03,12,02,19,8.10
2012,03,12,02,20,8.10
2012,03,12,02,21,11.00
2012,03,12,02,22,9.80
2012,03,12,02,23,14.00
2012,03,12,02,24,10.50
2012,03,12,02,25,14.20
2012,03,12,02,26,9.70
2012,03,12,02,27,12.10
2012,03,12,02,28,7.90
2012,03,12,02,29,7.20
2012,03,12,02,30,8.60
2012,03,12,02,31,6.70
2012,03,12,02,32,8.90
2012,03,12,02,33,8.00
2012,03,12,02,34,8.50
2012,03,12,02,35,10.20
2012,03,12,02,36,9.90
2012,03,12,02,37,11.70
2012,03,12,02,38,12.40
2012,03,12,02,39,11.40
2012,03,12,02,40,7.60
2012,03,12,02,41,5.40
2012,03,12,02,42,13.60
2012,03,12,02,43,8.90
2012,03,12,02,44,12.00
2012,03,12,02,45,14.60
2012,03,12,02,46,8.00
2012,03,12,02,47,17.00
2012,03,12,02,48,13.80
2012,03,12,02,49,16.00
2012,03,12,02,50,16.10
2012,03,12,02,51,12.80
2012,03,12,02,52,6.30
2012,03,12,02,53,10.20
2012,03,12,02,54,10.10
2012,03,12,02,55,14.20
2012,03,12,02,56,10.90
2012,03,12,02,57,11.40
2012,03,12,02,58,13.80
2012,03,12,02,59,15.40
2012,03,12,03,00,16.60
2012,03,12,03,01,13.00
2012,03,12,03,02,14.10
2012,03,12,03,03,8.40
2012,03,12,03,04,9.30
2012,03,12,03,05,9.00
2012,03,12,03,06,11.70
2012,03,12,03,07,11.20
2012,03,12,03,08,5.40
2012,03,12,03,09,11.40
2012,03,12,03,10,6.00
2012,03,12,03,11,10.40
2012,03,12,03,12,7.10
2012,03,12,03,13,8.20
2012,03,12,03,14,10.10
2012,03,12,03,15,8.40
2012,03,12,03,16,11.00
2012,03,12,03,17,14.50
2012,03,12,03,18,14.40
2012,03,12,03,19,8.90
2012,03,12,03,20,9.60
2012,03,12,03,21,6.90
2012,03,12,03,22,9.70
2012,03,12,03,23,11.00
2012,03,12,03,24,12.70
2012,03,12,03,25,9.10
2012,03,12,03,26,17.80
2012,03,12,03,27,9.40
2012,03,12,03,28,10.10
2012,03,12,03,29,9.70
2012,03,12,03,30,8.10
2012,03,12,03,31,11.70
2012,03,12,03,32,12.30
2012,03,12,03,33,12.70
2012,03,12,03,34,14.50
2012,03,12,03,35,12.90
2012,03,12,03,36,7.20
2012,03,12,03,37,7.60
2012,03,12,03,38,11.00
2012,03,12,03,39,8.50
2012,03,12,03,40,14.00
2012,03,12,03,41,10.40
2012,03,12,03,42,10.80
2012,03,12,03,43,14.30
2012,03,12,03,44,15.20
2012,03,12,03,45,10.00
2012,03,12,03,46,8.10
2012,03,12,03,47,10.40
2012,03,12,03,48,11.30
2012,03,12,03,49,8.70
2012,03,12,03,50,9.80
2012,03,12,03,51,15.00
2012,03,12,03,52,16.30
2012,03,12,03,53,7.70
2012,03,12,03,54,11.70
2012,03,12,03,55,8.80
2012,03,12,03,56,13.40
2012,03,12,03,57,11.10
2012,03,12,03,58,13.90
2012,03,12,03,59,7.20
2012,03,12,04,00,10.00
2012,03,12,04,01,10.90
2012,03,12,04,02,14.10
2012,03,12,04,03,17.30
2012,03,12,04,04,8.40
2012,03,12,04,05,5.90
2012,03,12,04,06,10.70
2012,03,12,04,07,11.80
2012,03,12,04,08,10.90
2012,03,12,04,09,12.30
2012,03,12,04,10,13.00
2012,03,12,04,11,10.40
2012,03,12,04,12,9.70
2012,03,12,04,13,9.70
2012,03,12,04,14,11.50
2012,03,12,04,15,12.30
2012,03,12,04,16,13.60
2012,03,12,04,17,11.90
2012,03,12,04,18,10.50
2012,03,12,04,19,9.60
2012,03,12,04,20,9.60
2012,03,12,04,21,9.60
2012,03,12,04,22,9.60
2012,03,12,04,23,9.60
2012,03,12,04,24,10.60
2012,03,12,04,25,15.80
2012,03,12,04,26,8.60
2012,03,12,04,27,12.40
2012,03,12,04,28,10.70
2012,03,12,04,29,8.10
2012,03,12,04,30,9.50
2012,03,12,04,31,12.10
2012,03,12,04,32,17.20
2012,03,12,04,33,15.60
2012,03,12,04,34,13.50
2012,03,12,04,35,10.90
2012,03,12,04,36,11.00
2012,03,12,04,37,9.40
2012,03,12,04,38,17.20
2012,03,12,04,39,14.40
2012,03,12,04,40,9.50
2012,03,12,04,41,10.30
2012,03,12,04,42,8.70
2012,03,12,04,43,18.10
2012,03,12,04,44,8.90
2012,03,12,04,45,13.60
2012,03,12,04,46,11.90
2012,03,12,04,47,20.30
2012,03,12,04,48,16.90
2012,03,12,04,49,18.20
2012,03,12,04,50,11.80
2012,03,12,04,51,18.90
2012,03,12,04,52,13.60
2012,03,12,04,53,13.00
2012,03,12,04,54,13.40
2012,03,12,04,55,17.80
2012,03,12,04,56,17.90
2012,03,12,04,57,15.90
2012,03,12,04,58,15.30
2012,03,12,04,59,17.00
2012,03,12,05,00,21.10
2012,03,12,05,01,21.00
2012,03,12,05,02,14.70
2012,03,12,05,03,9.70
2012,03,12,05,04,15.30
2012,03,12,05,05,15.50
2012,03,12,05,06,14.50
2012,03,12,05,07,13.10
2012,03,12,05,08,15.20
2012,03,12,05,09,19.40
2012,03,12,05,10,11.50
2012,03,12,05,11,17.90
2012,03,12,05,12,16.30
2012,03,12,05,13,20.80
2012,03,12,05,14,11.60
2012,03,12,05,15,15.00
2012,03,12,05,16,15.90
2012,03,12,05,17,18.80
2012,03,12,05,18,14.20
2012,03,12,05,19,21.40
2012,03,12,05,20,16.50
2012,03,12,05,21,15.50
2012,03,12,05,22,16.90
2012,03,12,05,23,17.50
2012,03,12,05,24,16.50
2012,03,12,05,25,17.60
2012,03,12,05,26,13.60
2012,03,12,05,27,12.60
2012,03,12,05,28,10.70
2012,03,12,05,29,10.90
2012,03,12,05,30,16.80
2012,03,12,05,31,17.80
2012,03,12,05,32,19.80
2012,03,12,05,33,17.20
2012,03,12,05,34,13.40
2012,03,12,05,35,13.60
2012,03,12,05,36,19.70
2012,03,12,05,37,19.20
2012,03,12,05,38,15.50
2012,03,12,05,39,18.70
2012,03,12,05,40,14.50
2012,03,12,05,41,20.80
2012,03,12,05,42,18.50
2012,03,12,05,43,16.90
2012,03,12,05,44,19.30
2012,03,12,05,45,13.70
2012,03,12,05,46,18.30
2012,03,12,05,47,14.60
2012,03,12,05,48,16.50
2012,03,12,05,49,16.30
2012,03,12,05,50,10.00
2012,03,12,05,51,19.60
2012,03,12,05,52,16.40
2012,03,12,05,53,15.00
2012,03,12,05,54,22.40
2012,03,12,05,55,18.60
2012,03,12,05,56,19.80
2012,03,12,05,57,22.90
2012,03,12,05,58,17.00
2012,03,12,05,59,15.20
2012,03,12,06,00,18.30
2012,03,12,06,01,13.00
2012,03,12,06,02,20.40
2012,03,12,06,03,20.40
2012,03,12,06,04,16.90
2012,03,12,06,05,17.00
2012,03,12,06,06,19.20
2012,03,12,06,07,14.00
2012,03,12,06,08,17.40
2012,03,12,06,09,20.90
2012,03,12,06,10,23.00
2012,03,12,06,11,15.90
2012,03,12,06,12,13.60
2012,03,12,06,13,9.70
2012,03,12,06,14,21.00
2012,03,12,06,15,17.70
2012,03,12,06,16,14.70
2012,03,12,06,17,13.10
2012,03,12,06,18,17.00
2012,03,12,06,19,9.70
2012,03,12,06,20,23.20
2012,03,12,06,21,15.60
2012,03,12,06,22,19.30
2012,03,12,06,23,14.30
2012,03,12,06,24,18.80
2012,03,12,06,25,14.40
2012,03,12,06,26,21.80
2012,03,12,06,27,18.30
2012,03,12,06,28,20.50
2012,03,12,06,29,20.30
2012,03,12,06,30,20.20
2012,03,12,06,31,20.00
2012,03,12,06,32,18.40
2012,03,12,06,33,21.60
2012,03,12,06,34,13.90
2012,03,12,06,35,12.60
2012,03,12,06,36,11.40
2012,03,12,06,37,17.20
2012,03,12,06,38,12.10
2012,03,12,06,39,15.50
2012,03,12,06,40,19.20
2012,03,12,06,41,16.00
2012,03,12,06,42,18.70
2012,03,12,06,43,20.50
2012,03,12,06,44,17.50
2012,03,12,06,45,12.30
2012,03,12,06,46,13.80
2012,03,12,06,47,28.30
2012,03,12,06,48,23.00
2012,03,12,10,01,19.60
2012,03,12,10,02,16.30
2012,03,12,10,03,12.10
2012,03,12,10,04,8.50
2012,03,12,10,05,6.50
2012,03,12,10,06,4.80
2012,03,12,10,07,8.60
2012,03,12,10,08,9.30
2012,03,12,10,09,11.40
2012,03,12,10,10,8.90
2012,03,12,10,11,12.00
2012,03,12,10,12,7.80
2012,03,12,10,13,6.80
2012,03,12,10,14,12.80
2012,03,12,10,15,9.30
2012,03,12,10,16,9.60
2012,03,12,10,17,4.30
2012,03,12,10,18,13.10
2012,03,12,10,19,13.00
2012,03,12,10,20,7.10
2012,03,12,10,21,9.50
2012,03,12,10,22,11.30
2012,03,12,10,23,4.80
2012,03,12,10,24,8.90
2012,03,12,10,25,9.80
2012,03,12,10,26,10.20
2012,03,12,10,27,8.30
2012,03,12,10,28,11.00
2012,03,12,10,29,10.50
2012,03,12,10,30,7.30
2012,03,12,10,31,5.40
2012,03,12,10,32,6.70
2012,03,12,10,33,3.40
2012,03,12,10,34,2.00
2012,03,12,10,35,7.20
2012,03,12,10,36,10.90
2012,03,12,10,37,3.70
2012,03,12,10,38,3.50
2012,03,12,10,39,6.40
2012,03,12,10,40,8.90
2012,03,12,10,41,2.70
2012,03,12,10,42,2.90
2012,03,12,10,43,8.60
2012,03,12,10,44,10.30
2012,03,12,10,45,7.70
2012,03,12,10,46,11.30
2012,03,12,10,47,10.70
2012,03,12,10,48,13.30
2012,03,12,10,49,13.80
2012,03,12,10,50,8.90
2012,03,12,10,51,10.60
2012,03,12,10,52,12.90
2012,03,12,10,53,8.20
2012,03,12,10,54,6.30
2012,03,12,10,55,11.00
2012,03,12,10,56,6.20
2012,03,12,10,57,6.30
2012,03,12,10,58,10.40
2012,03,12,10,59,9.30
2012,03,12,11,00,7.20
2012,03,12,11,01,8.10
2012,03,12,11,02,7.70
2012,03,12,11,03,8.50
2012,03,12,11,04,8.00
2012,03,12,11,05,6.50
2012,03,12,11,06,7.10
2012,03,12,11,07,10.50
2012,03,12,11,08,4.60
2012,03,12,11,09,5.10
2012,03,12,11,10,3.00
2012,03,12,11,11,5.80
2012,03,12,11,12,6.70
2012,03,12,11,13,6.70
2012,03,12,11,14,7.30
2012,03,12,11,15,4.70
2012,03,12,11,16,3.00
2012,03,12,11,17,3.50
2012,03,12,11,18,4.30
2012,03,12,11,19,5.90
2012,03,12,11,20,5.50
2012,03,12,11,21,8.40
2012,03,12,11,22,7.20
2012,03,12,11,23,1.60
2012,03,12,11,24,0.40
2012,03,12,11,25,1.10
2012,03,12,11,26,8.50
2012,03,12,11,27,3.70
2012,03,12,11,28,2.80
2012,03,12,11,29,2.00
2012,03,12,11,30,2.30
2012,03,12,11,31,1.60
2012,03,12,11,32,2.50
2012,03,12,11,33,4.20
2012,03,12,11,34,2.20
2012,03,12,11,35,0.30
2012,03,12,11,36,0.30
2012,03,12,11,37,2.10
2012,03,12,11,38,3.10
2012,03,12,11,39,6.80
2012,03,12,11,40,1.90
2012,03,12,11,41,0.30
2012,03,12,11,42,0.00
2012,03,12,11,43,0.10
2012,03,12,11,44,1.00
2012,03,12,11,45,4.30
2012,03,12,11,46,2.00
2012,03,12,11,47,0.60
2012,03,12,11,48,0.90
2012,03,12,11,49,1.30
2012,03,12,11,50,0.90
2012,03,12,11,51,0.00
2012,03,12,11,52,1.40
2012,03,12,11,53,1.90
2012,03,12,11,54,0.90
2012,03,12,11,55,0.00
2012,03,12,11,56,0.10
2012,03,12,11,57,0.80
2012,03,12,11,58,0.00
2012,03,12,11,59,0.00
2012,03,12,12,00,0.10
2012,03,12,12,01,0.00
2012,03,12,12,02,0.00
2012,03,12,12,03,0.00
2012,03,12,12,04,0.00
2012,03,12,12,05,0.00
2012,03,12,12,06,0.00
2012,03,12,12,07,0.00
2012,03,12,12,08,0.10
2012,03,12,12,09,0.00
2012,03,12,12,10,0.10
2012,03,12,12,11,0.00
2012,03,12,12,12,0.00
2012,03,12,12,13,0.00
2012,03,12,12,14,0.00
2012,03,12,12,15,0.00
2012,03,12,12,16,0.00
2012,03,12,12,17,0.00
2012,03,12,12,18,0.00
2012,03,12,12,19,0.00
2012,03,12,12,20,0.90
2012,03,12,12,21,0.60
2012,03,12,12,22,0.00
2012,03,12,12,23,0.00
2012,03,12,12,24,0.40
2012,03,12,12,25,0.00
2012,03,12,12,26,0.10
2012,03,12,12,27,0.00
2012,03,12,12,28,0.10
2012,03,12,12,29,0.10
2012,03,12,12,30,0.00
2012,03,12,12,31,0.30
2012,03,12,12,32,1.00
2012,03,12,12,33,1.10
2012,03,12,12,34,2.20
2012,03,12,12,35,6.30
2012,03,12,12,36,4.80
2012,03,12,12,37,6.80
2012,03,12,12,38,8.30
2012,03,12,12,39,7.70
2012,03,12,12,40,3.10
2012,03,12,12,41,0.60
2012,03,12,12,42,0.60
2012,03,12,12,43,0.50
2012,03,12,12,44,0.00
2012,03,12,12,45,0.00
2012,03,12,12,46,0.10
2012,03,12,12,47,0.80
2012,03,12,12,48,0.70
2012,03,12,12,49,0.10
2012,03,12,12,50,0.00
2012,03,12,12,51,0.00
2012,03,12,12,52,0.10
2012,03,12,12,53,0.30
2012,03,12,12,54,0.00
2012,03,12,12,55,0.00
2012,03,12,12,56,0.10
2012,03,12,12,57,0.00
2012,03,12,12,58,0.00
2012,03,12,12,59,0.00
2012,03,12,13,00,0.00
2012,03,12,13,01,0.00
2012,03,12,13,02,0.00
2012,03,12,13,03,0.00
2012,03,12,13,04,0.00
2012,03,12,13,05,0.00
2012,03,12,13,06,0.50
2012,03,12,13,07,0.60
2012,03,12,13,08,0.10
2012,03,12,13,09,0.00
2012,03,12,13,10,0.00
2012,03,12,13,11,0.00
2012,03,12,13,12,0.00
2012,03,12,13,13,0.00
2012,03,12,13,14,0.00
2012,03,12,13,15,0.20
2012,03,12,13,16,0.00
2012,03,12,13,17,0.00
2012,03,12,13,18,0.00
2012,03,12,13,19,0.00
2012,03,12,13,20,0.00
2012,03,12,13,21,0.00
2012,03,12,13,22,0.00
2012,03,12,13,23,0.00
2012,03,12,13,24,0.00
2012,03,12,13,25,0.00
2012,03,12,13,26,0.00
2012,03,12,13,27,0.00
2012,03,12,13,28,0.00
2012,03,12,13,29,0.00
2012,03,12,13,30,0.00
2012,03,12,13,31,0.10
2012,03,12,13,32,0.10
2012,03,12,13,33,0.00
2012,03,12,13,34,0.00
2012,03,12,13,35,0.00
2012,03,12,13,36,0.00
2012,03,12,13,37,0.00
2012,03,12,13,38,0.00
2012,03,12,13,39,0.00
2012,03,12,13,40,0.00
2012,03,12,13,41,0.00
2012,03,12,13,42,0.30
2012,03,12,13,43,0.00
2012,03,12,13,44,0.70
2012,03,12,13,45,0.00
2012,03,12,13,46,0.00
2012,03,12,13,47,0.30
2012,03,12,13,48,0.60
2012,03,12,13,49,0.20
2012,03,12,13,50,0.10
2012,03,12,13,51,0.00
2012,03,12,13,52,0.00
2012,03,12,13,53,0.00
2012,03,12,13,54,0.00
2012,03,12,13,55,0.40
2012,03,12,13,56,1.90
2012,03,12,13,57,2.50
2012,03,12,13,58,0.20
2012,03,12,13,59,0.00
2012,03,12,14,00,0.00
2012,03,12,14,01,0.00
2012,03,12,14,02,0.10
2012,03,12,14,03,0.00
2012,03,12,14,04,0.00
2012,03,12,14,05,0.00
2012,03,12,14,06,0.00
2012,03,12,14,07,0.00
2012,03,12,14,08,2.30
2012,03,12,14,09,1.60
2012,03,12,14,10,5.00
2012,03,12,14,11,8.50
2012,03,12,14,12,4.30
2012,03,12,14,13,2.30
2012,03,12,14,14,2.90
2012,03,12,14,15,2.50
2012,03,12,14,16,2.60
2012,03,12,14,17,1.90
2012,03,12,14,18,2.40
2012,03,12,14,19,2.30
2012,03,12,14,20,1.30
2012,03,12,14,21,0.50
2012,03,12,14,22,0.80
2012,03,12,14,23,4.50
2012,03,12,14,24,2.90
2012,03,12,14,25,1.80
2012,03,12,14,26,4.10
2012,03,12,14,27,5.10
2012,03,12,14,28,4.80
2012,03,12,14,29,0.60
2012,03,12,14,30,0.00
2012,03,12,14,31,0.10
2012,03,12,14,32,1.00
2012,03,12,14,33,4.40
2012,03,12,14,34,3.60
2012,03,12,14,35,6.40
2012,03,12,14,36,2.60
2012,03,12,14,37,2.90
2012,03,12,14,38,2.00
2012,03,12,14,39,0.10
2012,03,12,14,40,2.30
2012,03,12,14,41,2.00
2012,03,12,14,42,2.60
2012,03,12,14,43,1.80
2012,03,12,14,44,3.20
2012,03,12,14,45,1.40
2012,03,12,14,46,7.20
2012,03,12,14,47,3.40
2012,03,12,14,48,1.90
2012,03,12,14,49,4.10
2012,03,12,14,50,3.10
2012,03,12,14,51,2.30
2012,03,12,14,52,2.70
2012,03,12,14,53,2.80
2012,03,12,14,54,4.60
2012,03,12,14,55,2.70
2012,03,12,14,56,1.80
2012,03,12,14,57,0.20
2012,03,12,14,58,0.00
2012,03,12,14,59,0.00
2012,03,12,15,00,0.00
2012,03,12,15,01,1.50
2012,03,12,15,02,0.60
2012,03,12,15,03,0.00
2012,03,12,15,04,0.00
2012,03,12,15,05,0.00
2012,03,12,15,06,0.70
2012,03,12,15,07,1.50
2012,03,12,15,08,0.10
2012,03,12,15,09,0.60
2012,03,12,15,10,1.60
2012,03,12,15,11,1.50
2012,03,12,15,12,1.30
2012,03,12,15,13,0.30
2012,03,12,15,14,0.30
2012,03,12,15,15,0.70
2012,03,12,15,16,0.60
2012,03,12,15,17,0.00
2012,03,12,15,18,0.10
2012,03,12,15,19,0.20
2012,03,12,15,20,0.70
2012,03,12,15,21,1.00
2012,03,12,15,22,3.00
2012,03,12,15,23,0.40
2012,03,12,15,24,0.00
2012,03,12,15,25,0.00
2012,03,12,15,26,0.00
2012,03,12,15,27,0.00
2012,03,12,15,28,0.00
2012,03,12,15,29,0.10
2012,03,12,15,30,0.60
2012,03,12,15,31,0.30
2012,03,12,15,32,0.30
2012,03,12,15,33,0.00
2012,03,12,15,34,1.20
2012,03,12,15,35,0.50
2012,03,12,15,36,0.00
2012,03,12,15,37,0.00
2012,03,12,15,38,0.10
2012,03,12,15,39,0.10
2012,03,12,15,40,0.00
2012,03,12,15,41,0.30
2012,03,12,15,42,0.10
2012,03,12,15,43,0.00
2012,03,12,15,44,0.00
2012,03,12,15,45,0.00
2012,03,12,15,46,0.00
2012,03,12,15,47,0.00
2012,03,12,15,48,0.10
2012,03,12,15,49,0.20
2012,03,12,15,50,0.10
2012,03,12,15,51,0.10
2012,03,12,15,52,0.00
2012,03,12,15,53,0.00
2012,03,12,15,54,0.10
2012,03,12,15,55,0.00
2012,03,12,15,56,0.00
2012,03,12,15,57,0.10
2012,03,12,15,58,0.00
2012,03,12,15,59,0.00
2012,03,12,16,00,0.00
2012,03,12,16,01,0.00
2012,03,12,16,02,0.00
2012,03,12,16,03,0.00
2012,03,12,16,04,0.00
2012,03,12,16,05,0.00
2012,03,12,16,06,0.00
2012,03,12,16,07,0.00
2012,03,12,16,08,0.00
2012,03,12,16,09,0.00
2012,03,12,16,10,0.00
2012,03,12,16,11,0.00
2012,03,12,16,12,0.00
2012,03,12,16,13,0.00
2012,03,12,16,14,0.00
2012,03,12,16,15,0.00
2012,03,12,16,16,0.10
2012,03,12,16,17,0.70
2012,03,12,16,18,0.00
2012,03,12,16,19,0.20
2012,03,12,16,20,0.00
2012,03,12,16,21,0.00
2012,03,12,16,22,0.00
2012,03,12,16,23,0.00
2012,03,12,16,24,0.30
2012,03,12,16,25,0.20
2012,03,12,16,26,0.00
2012,03,12,16,27,0.00
2012,03,12,16,28,0.00
2012,03,12,16,29,0.00
2012,03,12,16,30,0.00
2012,03,12,16,31,0.20
2012,03,12,16,32,0.00
2012,03,12,16,33,0.10
2012,03,12,16,34,0.80
2012,03,12,16,35,0.10
2012,03,12,16,36,0.00
2012,03,12,16,37,0.10
2012,03,12,16,38,0.00
2012,03,12,16,39,0.20
2012,03,12,16,40,0.00
2012,03,12,16,41,0.00
2012,03,12,16,42,0.00
2012,03,12,16,43,0.00
2012,03,12,16,44,0.00
2012,03,12,16,45,0.00
2012,03,12,16,46,0.00
2012,03,12,16,47,0.00
2012,03,12,16,48,0.00
2012,03,12,16,49,0.00
2012,03,12,16,50,0.00
2012,03,12,16,51,0.00
2012,03,12,16,52,0.00
2012,03,12,16,53,0.00
2012,03,12,16,54,0.00
2012,03,12,16,55,0.00
2012,03,12,16,56,0.00
2012,03,12,16,57,0.00
2012,03,12,16,58,0.00
2012,03,12,16,59,0.00
2012,03,12,17,00,0.00
2012,03,12,17,01,0.00
2012,03,12,17,02,0.00
2012,03,12,17,03,0.00
2012,03,12,17,04,0.00
2012,03,12,17,05,0.00
2012,03,12,17,06,0.00
2012,03,12,17,07,0.00
2012,03,12,17,08,0.00
2012,03,12,17,09,0.00
2012,03,12,17,10,0.00
2012,03,12,17,11,0.00
2012,03,12,17,12,0.00
2012,03,12,17,13,0.00
2012,03,12,17,14,0.00
2012,03,12,17,15,0.00
2012,03,12,17,16,0.00
2012,03,12,17,17,0.10
2012,03,12,17,18,0.00
2012,03,12,17,19,0.00
2012,03,12,17,20,0.00
2012,03,12,17,21,0.00
2012,03,12,17,22,0.00
2012,03,12,17,23,0.00
2012,03,12,17,24,0.00
2012,03,12,17,25,0.00
2012,03,12,17,26,0.00
2012,03,12,17,27,0.00
2012,03,12,17,28,0.00
2012,03,12,17,29,0.00
2012,03,12,17,30,0.00
2012,03,12,17,31,0.00
2012,03,12,17,32,0.00
2012,03,12,17,33,0.00
2012,03,12,17,34,0.00
2012,03,12,17,35,0.00
2012,03,12,17,36,0.00
2012,03,12,17,37,0.20
2012,03,12,17,38,0.20
2012,03,12,17,39,0.40
2012,03,12,17,40,0.70
2012,03,12,17,41,0.00
2012,03,12,17,42,0.00
2012,03,12,17,43,0.00
2012,03,12,17,44,0.00
2012,03,12,17,45,0.00
2012,03,12,17,46,0.10
2012,03,12,17,47,0.90
2012,03,12,17,48,0.00
2012,03,12,17,49,0.00
2012,03,12,17,50,1.70
2012,03,12,17,51,0.70
2012,03,12,17,52,0.10
2012,03,12,17,53,0.00
2012,03,12,17,54,0.00
2012,03,12,17,55,0.60
2012,03,12,17,56,1.50
2012,03,12,17,57,1.10
2012,03,12,17,58,0.00
2012,03,12,17,59,0.00
2012,03,12,18,00,0.00
2012,03,12,18,01,0.00
2012,03,12,18,02,0.00
2012,03,12,18,03,0.00
2012,03,12,18,04,0.00
2012,03,12,18,05,0.00
2012,03,12,18,06,0.10
2012,03,12,18,07,0.20
2012,03,12,18,08,0.00
2012,03,12,18,09,0.00
2012,03,12,18,10,0.00
2012,03,12,18,11,0.00
2012,03,12,18,12,0.70
2012,03,12,18,13,0.60
2012,03,12,18,14,0.00
2012,03,12,18,15,0.20
2012,03,12,18,16,0.00
2012,03,12,18,17,0.00
2012,03,12,18,18,0.00
2012,03,12,18,19,0.00
2012,03,12,18,20,0.00
2012,03,12,18,21,0.00
2012,03,12,18,22,0.00
2012,03,12,18,23,0.20
2012,03,12,18,24,0.00
2012,03,12,18,25,0.00
2012,03,12,18,26,0.00
2012,03,12,18,27,0.00
2012,03,12,18,28,0.00
2012,03,12,18,29,0.00
2012,03,12,18,30,0.10
2012,03,12,18,31,0.10
2012,03,12,18,32,0.00
2012,03,12,18,33,0.00
2012,03,12,18,34,0.10
2012,03,12,18,35,0.00
2012,03,12,18,36,0.50
2012,03,12,18,37,0.70
2012,03,12,18,38,1.90
2012,03,12,18,39,0.60
2012,03,12,18,40,0.10
2012,03,12,18,41,0.20
2012,03,12,18,42,0.60
2012,03,12,18,43,0.50
2012,03,12,18,44,1.10
2012,03,12,18,45,3.20
2012,03,12,18,46,0.70
2012,03,12,18,47,0.00
2012,03,12,18,48,0.00
2012,03,12,18,49,0.50
2012,03,12,18,50,1.60
2012,03,12,18,51,0.00
2012,03,12,18,52,0.30
2012,03,12,18,53,1.80
2012,03,12,18,54,0.80
2012,03,12,18,55,0.00
2012,03,12,18,56,1.00
2012,03,12,18,57,3.10
2012,03,12,18,58,0.00
2012,03,12,18,59,0.00
2012,03,12,19,00,0.10
2012,03,12,19,01,0.60
2012,03,12,19,02,0.80
2012,03,12,19,03,0.50
2012,03,12,19,04,0.80
2012,03,12,19,05,0.70
2012,03,12,19,06,0.00
2012,03,12,19,07,0.00
2012,03,12,19,08,0.20
2012,03,12,19,09,0.70
2012,03,12,19,10,0.20
2012,03,12,19,11,0.10
2012,03,12,19,12,0.00
2012,03,12,19,13,0.00
2012,03,12,19,14,0.90
2012,03,12,19,15,2.10
2012,03,12,19,16,1.90
2012,03,12,19,17,2.90
2012,03,12,19,18,2.70
2012,03,12,19,19,0.60
2012,03,12,19,20,0.00
2012,03,12,19,21,0.60
2012,03,12,19,22,1.50
2012,03,12,19,23,0.20
2012,03,12,19,24,0.10
2012,03,12,19,25,2.10
2012,03,12,19,26,1.60
2012,03,12,19,27,3.80
2012,03,12,19,28,3.60
2012,03,12,19,29,3.20
2012,03,12,19,30,3.20
2012,03,12,19,31,3.20
2012,03,12,19,32,3.20
2012,03,12,19,33,1.60
2012,03,12,19,34,1.40
2012,03,12,19,35,2.30
2012,03,12,19,36,3.00
2012,03,12,19,37,0.40
2012,03,12,19,38,1.90
2012,03,12,19,39,1.90
2012,03,12,19,40,1.50
2012,03,12,19,41,3.70
2012,03,12,19,42,2.70
2012,03,12,19,43,3.00
2012,03,12,19,44,2.40
2012,03,12,19,45,1.50
2012,03,12,19,46,1.50
2012,03,12,19,47,2.60
2012,03,12,19,48,2.70
2012,03,12,19,49,2.80
2012,03,12,19,50,3.00
2012,03,12,19,51,1.80
2012,03,12,19,52,1.50
2012,03,12,19,53,2.70
2012,03,12,19,54,2.00
2012,03,12,19,55,2.00
2012,03,12,19,56,2.60
2012,03,12,19,57,3.90
2012,03,12,19,58,1.30
2012,03,12,19,59,0.60
2012,03,12,20,00,2.30
2012,03,12,20,01,1.50
2012,03,12,20,02,0.10
2012,03,12,20,03,2.70
2012,03,12,20,04,0.80
2012,03,12,20,05,0.50
2012,03,12,20,06,3.90
2012,03,12,20,07,2.30
2012,03,12,20,08,0.30
2012,03,12,20,09,0.20
2012,03,12,20,10,3.40
2012,03,12,20,11,4.30
2012,03,12,20,12,0.60
2012,03,12,20,13,1.70
2012,03,12,20,14,1.40
2012,03,12,20,15,0.80
2012,03,12,20,16,2.20
2012,03,12,20,17,4.10
2012,03,12,20,18,3.90
2012,03,12,20,19,0.10
2012,03,12,20,20,0.10
2012,03,12,20,21,1.30
2012,03,12,20,22,1.00
2012,03,12,20,23,2.00
2012,03,12,20,24,0.90
2012,03,12,20,25,2.20
2012,03,12,20,26,0.80
2012,03,12,20,27,1.80
2012,03,12,20,28,0.40
2012,03,12,20,29,1.00
2012,03,12,20,30,0.00
2012,03,12,20,31,0.30
2012,03,12,20,32,1.90
2012,03,12,20,33,2.20
2012,03,12,20,34,2.60
2012,03,12,20,35,1.90
2012,03,12,20,36,0.60
2012,03,12,20,37,1.00
2012,03,12,20,38,1.50
2012,03,12,20,39,1.30
2012,03,12,20,40,1.70
2012,03,12,20,41,2.20
2012,03,12,20,42,1.20
2012,03,12,20,43,1.20
2012,03,12,20,44,0.80
2012,03,12,20,45,0.00
2012,03,12,20,46,0.10
2012,03,12,20,47,0.30
2012,03,12,20,48,0.10
2012,03,12,20,49,0.00
2012,03,12,20,50,0.60
2012,03,12,20,51,1.00
2012,03,12,20,52,2.10
2012,03,12,20,53,0.30
2012,03,12,20,54,0.00
2012,03,12,20,55,0.00
2012,03,12,20,56,0.40
2012,03,12,20,57,0.00
2012,03,12,20,58,0.00
2012,03,12,20,59,0.00
2012,03,12,21,00,1.60
2012,03,12,21,01,1.20
2012,03,12,21,02,0.10
2012,03,12,21,03,0.30
2012,03,12,21,04,0.70
2012,03,12,21,05,0.70
2012,03,12,21,06,0.50
2012,03,12,21,07,0.00